QPF
0.00 0.00 0.00 0.00 0.00 0.00 0.00 0.00 0.00 0.00 0.00 0.00 0.00 0.00 0.00 0.00 0.00 0.00 0.00 0.00 0.00 0.00 0.00 0.00 0.00 0.00 0.00 0.00 0.00 0.00 0.00 0.00 0.00 0.00 0.00 0.00 0.00 0.00 0.00 0.00 0.00 0.00 0.00 0.00 0.00
0.00 0.00 0.00 0.00 0.00 0.00 0.00 0.00 0.00 0.00 0.00 0.00 0.00 0.00 0.00 0.00 0.00 0.00 0.00 0.00 0.00 0.00 0.00 0.00 0.00 0.00 0.00 0.00 0.00 0.00 0.00 0.00 0.00 0.00 0.00 0.00 0.00 0.00 0.00 0.00 0.00 0.00 0.00 0.00 0.00
0.00 0.00 0.00 0.00 0.00 0.00 0.00 0.00 0.00 0.00 0.00 0.00 0.00 0.00 0.00 0.00 0.00 0.00 0.00 0.00 0.00 0.00 0.00 0.00 0.00 0.00 0.00 0.00 0.00 0.00 0.00 0.00 0.00 0.00 0.00 0.00 0.00 0.00 0.00 0.00 0.00 0.00 0.00 0.00 0.00
0.00 0.00 0.00 0.00 0.00 0.00 0.00 0.00 0.00 0.00 0.00 0.00 0.00 0.00 0.00 0.00 0.00 0.00 0.00 0.00 0.00 0.00 0.00 0.00 0.00 0.00 0.00 0.00 0.00 0.00 0.00 0.00 0.00 0.00 0.00 0.00 0.00 0.00 0.00 0.00 0.00 0.00 0.00 0.00 0.00
0.00 0.00 0.00 0.00 0.00 0.00 0.00 0.00 0.00 0.00 0.00 0.00 0.00 0.00 0.00 0.00 0.00 0.00 0.00 0.00 0.00 0.00 0.00 0.00 0.00 0.00 0.00 0.00 0.00 0.00 0.00 0.00 0.00 0.00 0.00 0.00 0.00 0.00 0.00 0.00 0.00 0.00 0.00 0.00 0.00
0.00 0.00 0.00 0.00 0.00 0.00 0.00 0.00 0.00 0.00 0.00 0.00 0.00 0.00 0.00 0.00 0.00 0.00 0.00 0.00 0.00 0.00 0.00 0.00 0.00 0.00 0.00 0.00 0.00 0.00 0.00 0.00 0.00 0.00 0.00 0.00 0.00 0.00 0.00 0.00 0.00 0.00 0.00 0.00 0.00
0.00 0.00 0.00 0.00 0.00 0.00 0.00 0.00 0.00 0.00 0.00 0.00 0.00 0.00 0.00 0.00 0.00 0.00 0.00 0.00 0.00 0.00 0.00 0.00 0.00 0.00 0.00 0.00 0.00 0.00 0.00 0.00 0.00 0.00 0.00 0.00 0.00 0.00 0.00 0.00 0.00 0.00 0.00 0.00 0.00
0.00 0.00 0.00 0.00 0.00 0.00 0.00 0.00 0.00 0.00 0.00 0.00 0.00 0.00 0.00 0.00 0.00 0.00 0.00 0.00 0.00 0.00 0.00 0.00 0.00 0.00 0.00 0.00 0.00 0.00 0.00 0.00 0.00 0.00 0.00 0.00 0.00 0.00 0.00 0.00 0.00 0.00 0.00 0.00 0.00
0.00 0.00 0.00 0.00 0.00 0.00 0.00 0.00 0.00 0.00 0.00 0.00 0.00 0.00 0.00 0.00 0.00 0.00 0.00 0.00 0.00 0.00 0.00 0.00 0.00 0.00 0.00 0.00 0.00 0.00 0.00 0.00 0.00 0.00 0.00 0.00 0.00 0.00 0.00 0.00 0.00 0.00 0.00 0.00 0.00
0.00 0.00 0.00 0.00 0.00 0.00 0.00 0.00 0.00 0.00 0.00 0.00 0.00 0.00 0.00 0.00 0.00 0.00 0.00 0.00 0.00 0.00 0.00 0.00 0.00 0.00 0.00 0.00 0.00 0.00 0.00 0.00 0.00 0.00 0.00 0.00 0.00 0.00 0.00 0.00 0.00 0.00 0.00 0.00 0.00
0.00 0.00 0.00 0.00 0.00 0.00 0.00 0.00 0.00 0.00 0.00 0.00 0.00 0.00 0.00 0.00 0.00 0.00 0.00 0.00 0.00 0.00 0.00 0.00 0.00 0.00 0.00 0.00 0.00 0.00 0.00 0.00 0.00 0.00 0.00 0.00 0.00 0.00 0.00 0.00 0.00 0.00 0.00 0.00 0.00
0.00 0.00 0.00 0.00 0.00 0.00 0.00 0.00 0.00 0.00 0.00 0.00 0.00 0.00 0.00 0.00 0.00 0.00 0.00 0.00 0.00 0.00 0.00 0.00 0.00 0.00 0.00 0.00 0.00 0.00 0.00 0.00 0.00 0.00 0.00 0.00 0.00 0.00 0.00 0.00 0.00 0.00 0.00 0.00 0.00
0.00 0.00 0.00 0.00 0.00 0.00 0.00 0.00 0.00 0.00 0.00 0.00 0.00 0.00 0.00 0.00 0.00 0.00 0.00 0.00 0.00 0.00 0.00 0.00 0.00 0.00 0.00 0.00 0.00 0.00 0.00 0.00 0.00 0.00 0.00 0.00 0.00 0.00 0.00 0.00 0.00 0.00 0.00 0.00 0.00
0.00 0.00 0.00 0.00 0.00 0.00 0.00 0.00 0.00 0.00 0.00 0.00 0.00 0.00 0.00 0.00 0.00 0.00 0.00 0.00 0.00 0.00 0.00 0.00 0.00 0.00 0.00 0.00 0.00 0.00 0.00 0.00 0.00 0.00 0.00 0.00 0.00 0.00 0.00 0.00 0.00 0.00 0.00 0.00 0.00
0.00 0.00 0.00 0.00 0.00 0.00 0.00 0.00 0.00 0.01 0.01 0.00 0.00 0.00 0.00 0.00 0.00 0.00 0.00 0.00 0.00 0.00 0.00 0.00 0.00 0.00 0.00 0.00 0.00 0.00 0.00 0.00 0.00 0.00 0.00 0.00 0.00 0.00 0.00 0.00 0.00 0.00 0.00 0.00 0.00
0.00 0.00 0.00 0.00 0.00 0.00 0.00 0.00 0.02 0.04 0.01 0.00 0.00 0.00 0.00 0.00 0.00 0.00 0.00 0.00 0.00 0.00 0.00 0.00 0.00 0.00 0.00 0.00 0.00 0.00 0.00 0.00 0.00 0.00 0.00 0.00 0.00 0.00 0.00 0.00 0.00 0.00 0.00 0.00 0.00
0.00 0.00 0.00 0.00 0.00 0.00 0.00 0.01 0.06 0.04 0.00 0.00 0.00 0.00 0.00 0.00 0.00 0.00 0.00 0.00 0.00 0.00 0.00 0.00 0.00 0.00 0.00 0.00 0.00 0.00 0.00 0.00 0.00 0.00 0.00 0.00 0.00 0.00 0.00 0.00 0.00 0.00 0.00 0.00 0.00
0.00 0.00 0.00 0.00 0.00 0.00 0.00 0.06 0.06 0.01 0.00 0.00 0.00 0.00 0.00 0.00 0.00 0.00 0.00 0.00 0.00 0.00 0.00 0.00 0.00 0.00 0.00 0.00 0.00 0.00 0.00 0.00 0.00 0.00 0.00 0.00 0.00 0.00 0.00 0.00 0.00 0.00 0.00 0.00 0.00
0.00 0.00 0.00 0.00 0.00 0.00 0.03 0.09 0.06 0.01 0.00 0.00 0.01 0.02 0.00 0.00 0.00 0.00 0.00 0.01 0.02 0.02 0.02 0.00 0.00 0.00 0.00 0.00 0.00 0.00 0.00 0.00 0.00 0.00 0.00 0.00 0.00 0.00 0.00 0.00 0.00 0.00 0.00 0.00 0.00
0.00 0.00 0.00 0.00 0.00 0.01 0.05 0.05 0.00 0.00 0.00 0.01 0.05 0.03 0.02 0.00 0.00 0.00 0.02 0.01 0.00 0.00 0.00 0.01 0.01 0.00 0.00 0.00 0.00 0.00 0.00 0.00 0.00 0.00 0.00 0.00 0.00 0.00 0.00 0.00 0.00 0.00 0.00 0.00 0.00
0.00 0.00 0.00 0.00 0.00 0.03 0.05 0.03 0.00 0.00 0.00 0.02 0.04 0.03 0.04 0.04 0.00 0.01 0.03 0.03 0.00 0.00 0.00 0.00 0.01 0.00 0.00 0.00 0.00 0.00 0.00 0.00 0.00 0.00 0.00 0.00 0.00 0.00 0.00 0.00 0.00 0.00 0.00 0.00 0.00
0.00 0.00 0.00 0.00 0.03 0.03 0.02 0.00 0.00 0.00 0.00 0.01 0.03 0.06 0.07 0.05 0.01 0.01 0.03 0.04 0.00 0.00 0.00 0.01 0.02 0.01 0.00 0.00 0.00 0.00 0.00 0.00 0.00 0.00 0.00 0.00 0.00 0.00 0.00 0.00 0.00 0.00 0.00 0.00 0.00
0.00 0.00 0.00 0.00 0.02 0.01 0.00 0.00 0.00 0.00 0.00 0.01 0.03 0.03 0.02 0.03 0.04 0.03 0.03 0.05 0.00 0.01 0.02 0.02 0.02 0.02 0.01 0.00 0.00 0.00 0.00 0.00 0.00 0.00 0.00 0.00 0.00 0.00 0.00 0.00 0.00 0.00 0.00 0.00 0.00
0.00 0.00 0.00 0.00 0.00 0.01 0.00 0.01 0.01 0.00 0.00 0.00 0.00 0.03 0.05 0.04 0.04 0.05 0.06 0.02 0.00 0.01 0.02 0.02 0.00 0.01 0.02 0.00 0.00 0.00 0.00 0.00 0.00 0.00 0.00 0.00 0.00 0.00 0.00 0.00 0.00 0.00 0.00 0.00 0.00
0.00 0.00 0.00 0.01 0.00 0.00 0.01 0.01 0.02 0.04 0.03 0.02 0.02 0.04 0.05 0.03 0.01 0.03 0.02 0.00 0.00 0.00 0.01 0.02 0.00 0.01 0.00 0.00 0.00 0.00 0.00 0.00 0.00 0.00 0.00 0.00 0.00 0.00 0.00 0.00 0.00 0.00 0.00 0.00 0.00
0.00 0.00 0.00 0.00 0.00 0.00 0.01 0.03 0.02 0.04 0.03 0.03 0.05 0.04 0.03 0.03 0.02 0.00 0.00 0.01 0.02 0.01 0.02 0.03 0.01 0.00 0.00 0.00 0.00 0.00 0.00 0.00 0.00 0.00 0.00 0.00 0.00 0.00 0.00 0.00 0.00 0.00 0.00 0.00 0.00
0.01 0.01 0.02 0.00 0.00 0.00 0.01 0.00 0.01 0.02 0.02 0.04 0.03 0.02 0.03 0.04 0.00 0.00 0.00 0.00 0.00 0.00 0.00 0.03 0.03 0.02 0.00 0.00 0.00 0.00 0.00 0.00 0.00 0.00 0.00 0.00 0.00 0.00 0.00 0.00 0.00 0.00 0.00 0.00 0.00
MSLP
1021.19 1020.94 1020.70 1020.44 1020.09 1019.75 1019.44 1019.23 1018.94 1018.40 1018.01 1017.45 1017.18 1016.89 1016.50 1016.23 1015.24 1013.71 1012.13 1009.98 1010.00 1010.77 1011.13 1010.14 1009.65 1009.25 1009.15 1008.30 1007.76 1006.77 1005.40 1003.36 1002.09 1001.05 1000.30 1000.06 999.82 999.99 1000.54 1001.26 1001.03 1000.99 1001.10 1001.39 1001.46
1021.26 1020.90 1020.60 1020.29 1019.99 1019.74 1019.50 1019.12 1018.64 1018.03 1017.80 1017.45 1017.30 1017.01 1016.53 1015.87 1014.30 1011.78 1009.82 1009.66 1010.07 1010.53 1010.28 1009.11 1008.80 1008.61 1008.04 1007.31 1006.85 1006.10 1004.43 1003.02 1001.97 1000.91 1000.37 999.95 999.78 999.82 1000.19 1000.29 1000.82 1000.83 1000.93 1000.87 1000.71
1021.36 1020.94 1020.50 1020.16 1019.85 1019.62 1019.43 1019.09 1018.65 1018.37 1018.02 1017.56 1017.29 1016.92 1016.38 1015.50 1012.59 1008.76 1009.42 1009.48 1010.10 1010.31 1009.59 1008.62 1008.06 1007.53 1006.76 1005.97 1005.35 1004.82 1003.20 1002.81 1001.59 1000.90 1000.49 1000.04 999.87 999.98 1000.23 1000.27 1000.46 1000.52 1000.75 1000.92 1001.01
1021.62 1021.17 1020.69 1020.16 1019.65 1019.16 1018.79 1018.53 1018.40 1018.24 1017.79 1017.45 1017.27 1016.74 1016.27 1015.05 1010.54 1008.69 1009.79 1009.71 1009.94 1009.92 1009.71 1008.45 1007.39 1006.17 1005.40 1004.63 1004.44 1003.51 1002.82 1002.56 1001.88 1001.28 1000.84 1000.10 999.85 999.56 1000.07 1000.26 1000.46 1000.47 1000.84 1000.92 1000.82
1021.67 1021.25 1020.84 1020.40 1019.89 1019.36 1018.85 1018.38 1017.91 1017.53 1017.40 1017.49 1017.33 1016.85 1015.83 1012.68 1009.27 1008.33 1009.17 1009.10 1008.79 1008.42 1008.28 1007.46 1006.27 1005.11 1003.60 1003.80 1003.63 1002.10 1001.93 1001.94 1001.44 1001.22 1000.69 1000.15 999.93 999.73 999.72 1000.22 1000.31 1000.30 1000.55 1000.57 1000.14
1021.69 1021.25 1020.78 1020.24 1019.70 1019.21 1018.73 1018.27 1017.84 1017.44 1017.16 1016.92 1016.78 1016.85 1015.49 1011.66 1008.76 1008.44 1008.52 1008.65 1008.32 1007.43 1006.94 1006.60 1004.96 1004.25 1003.30 1002.56 1002.19 1002.04 1001.61 1001.22 1001.06 1000.81 1000.46 1000.10 999.40 999.61 999.51 999.70 999.57 999.76 999.82 999.85 999.42
1021.70 1021.24 1020.75 1020.19 1019.60 1019.00 1018.41 1017.93 1017.46 1017.03 1016.80 1016.63 1016.50 1016.06 1013.71 1010.49 1009.11 1008.88 1008.76 1008.33 1007.88 1007.28 1006.56 1005.38 1004.97 1003.90 1002.98 1002.06 1001.94 1001.48 1000.93 1000.49 1000.02 1000.04 999.82 1000.31 998.71 998.75 999.16 999.09 998.96 998.88 998.95 998.89 998.66
1021.57 1021.06 1020.52 1019.96 1019.37 1018.78 1018.17 1017.46 1016.78 1016.27 1015.94 1015.80 1015.77 1015.15 1011.89 1009.53 1008.84 1008.42 1008.26 1007.66 1007.62 1007.62 1007.24 1006.19 1004.91 1003.97 1003.16 1002.87 1001.90 1001.28 1000.86 999.58 999.19 999.43 999.43 1000.05 996.92 998.45 998.71 998.32 997.82 997.65 997.77 997.65 998.14
1021.46 1021.00 1020.51 1019.90 1019.21 1018.45 1017.60 1016.46 1015.76 1015.33 1015.11 1015.08 1014.80 1013.65 1009.81 1008.37 1008.45 1008.05 1008.15 1007.64 1007.16 1006.59 1006.50 1006.79 1005.81 1004.09 1003.66 1002.86 1001.87 1000.40 998.83 998.32 998.57 998.69 998.59 998.42 996.32 997.40 997.80 997.79 997.61 997.38 997.23 997.71 997.72
1021.31 1020.75 1020.15 1019.53 1018.84 1018.04 1017.18 1015.61 1014.41 1014.87 1014.32 1013.44 1012.63 1011.71 1008.88 1007.60 1006.70 1007.56 1007.53 1007.38 1006.80 1006.21 1005.68 1005.85 1005.52 1004.22 1003.19 1001.66 998.67 998.36 998.35 998.76 997.77 997.78 997.40 996.77 995.90 996.16 997.03 997.33 997.32 996.80 996.50 996.44 996.94
1021.06 1020.51 1019.96 1019.33 1018.54 1017.68 1016.47 1013.25 1013.07 1012.61 1011.69 1010.50 1009.44 1008.75 1007.11 1006.76 1006.63 1006.83 1007.04 1006.87 1006.43 1005.92 1004.26 1004.51 1004.48 1001.49 998.46 999.44 998.95 998.91 998.45 997.36 996.93 996.72 996.94 996.41 995.69 995.35 996.21 996.58 996.36 996.21 995.97 995.62 996.05
1020.93 1020.27 1019.59 1018.91 1018.09 1017.31 1016.33 1013.72 1013.22 1013.50 1011.40 1009.90 1008.61 1007.53 1007.15 1007.13 1006.51 1006.36 1006.64 1006.20 1005.63 1004.61 1004.58 1003.53 1001.12 997.16 1000.54 999.73 999.51 999.11 998.37 997.04 997.15 996.48 996.33 996.06 995.38 995.16 995.39 995.51 995.74 995.76 995.49 995.51 995.61
1020.81 1020.17 1019.46 1018.70 1017.66 1016.59 1014.66 1013.80 1013.70 1013.10 1011.50 1008.50 1006.67 1005.63 1005.55 1006.04 1005.27 1005.20 1005.32 1005.28 1004.75 1003.61 1002.73 1001.30 997.03 1000.57 999.62 998.98 998.40 997.81 997.44 997.59 996.96 996.80 996.45 996.57 995.31 995.07 995.32 995.42 995.32 995.10 994.97 994.83 994.59
1020.44 1019.84 1019.20 1018.56 1017.35 1015.20 1013.74 1013.95 1013.57 1013.20 1010.97 1005.73 1005.26 1005.10 1005.51 1005.31 1004.60 1004.49 1004.28 1004.28 1003.79 1002.93 1001.91 1000.54 999.65 998.33 998.43 997.40 997.32 996.39 997.30 997.64 997.40 997.15 996.30 996.80 994.11 994.24 994.24 993.81 993.89 993.54 993.49 993.32 993.44
1020.11 1019.42 1018.75 1018.61 1017.32 1015.34 1014.49 1014.05 1013.74 1013.49 1009.98 1005.50 1004.83 1005.18 1004.87 1004.44 1003.51 1002.94 1003.21 1003.70 1003.10 1002.25 1002.29 998.42 998.91 997.85 997.03 995.16 997.05 994.61 997.11 996.95 997.15 997.15 997.09 996.39 995.25 993.57 993.52 992.77 992.49 992.19 992.11 992.14 992.45
1019.79 1019.09 1018.34 1016.20 1016.44 1015.45 1014.41 1014.30 1014.05 1013.20 1008.35 1005.75 1005.42 1005.30 1004.31 1003.76 1003.53 1002.83 1002.82 1003.02 1003.10 1002.66 1001.30 999.34 998.67 997.51 996.32 996.31 995.94 996.52 996.57 996.65 996.70 996.77 995.68 995.49 994.90 992.55 992.26 991.71 991.01 990.79 990.79 990.93 991.31
1019.44 1018.83 1018.20 1016.76 1015.64 1015.37 1015.06 1013.97 1013.61 1010.79 1008.62 1008.00 1007.17 1006.73 1006.31 1004.33 1003.55 1002.84 1002.55 1002.48 1002.21 1002.05 1001.25 999.84 998.24 996.97 996.14 996.01 995.62 995.36 995.64 995.71 995.93 995.31 993.49 994.55 993.71 991.30 991.31 990.99 990.60 990.41 990.45 990.45 991.11
1019.12 1018.35 1017.47 1016.47 1015.90 1015.52 1015.02 1014.03 1012.00 1009.52 1008.62 1008.00 1007.18 1006.41 1005.31 1004.54 1003.69 1003.01 1002.83 1002.90 1002.58 1001.98 1000.81 999.51 998.15 996.87 995.17 993.98 993.82 993.90 994.03 993.19 992.92 992.86 992.92 993.07 991.60 990.54 990.34 990.10 990.38 990.09 990.40 991.21 992.37
1018.34 1016.52 1016.33 1015.92 1016.09 1015.67 1015.28 1013.15 1010.77 1009.92 1009.65 1009.13 1008.43 1007.27 1005.55 1004.78 1004.09 1003.47 1003.21 1003.10 1003.95 1004.95 1004.35 999.90 997.06 996.06 995.35 994.53 993.81 992.65 992.73 992.56 992.74 991.97 991.54 990.34 989.80 990.12 989.61 989.46 989.77 989.66 990.29 991.25 992.65
1018.08 1015.83 1015.44 1015.97 1016.04 1015.19 1014.15 1012.51 1010.47 1010.10 1010.00 1009.61 1008.75 1008.44 1006.83 1005.48 1005.09 1004.08 1003.69 1005.78 1004.99 1005.34 1005.69 1001.51 997.97 995.62 994.26 994.81 993.10 991.68 991.82 993.05 992.20 991.08 990.18 990.06 989.13 988.96 988.64 988.22 988.93 989.35 990.01 991.05 992.76
1017.63 1015.13 1015.31 1015.63 1015.58 1014.69 1013.92 1011.97 1010.89 1010.84 1010.39 1009.81 1009.39 1008.36 1007.50 1006.91 1006.12 1005.07 1004.89 1005.59 1006.39 1005.63 1004.94 1003.00 1001.40 996.86 994.78 992.39 991.79 990.95 990.55 991.43 991.71 990.91 989.99 989.57 989.07 988.43 988.55 988.17 988.50 988.93 989.56 991.26 992.69
1016.37 1013.94 1014.92 1015.11 1015.32 1014.60 1013.47 1012.25 1011.79 1010.35 1010.03 1009.43 1009.52 1009.56 1008.27 1007.69 1006.74 1005.66 1005.57 1005.98 1006.68 1006.20 1004.97 1002.87 1001.71 998.45 994.37 992.20 991.87 990.94 990.31 990.81 989.87 990.02 989.97 989.13 989.00 989.39 988.91 989.02 989.14 988.95 990.07 991.52 992.75
1016.21 1014.22 1014.48 1014.95 1015.09 1014.65 1013.43 1012.28 1011.23 1010.89 1009.85 1009.36 1009.24 1008.80 1008.14 1007.72 1006.90 1005.95 1005.83 1007.79 1008.01 1007.62 1006.44 1005.27 1002.04 999.12 996.23 992.66 991.48 989.98 989.94 990.02 990.69 989.87 989.79 988.87 988.99 989.38 989.14 989.41 989.76 989.47 990.58 991.89 992.82
1016.49 1013.97 1013.42 1014.22 1015.15 1015.26 1014.22 1012.75 1011.79 1011.06 1010.35 1009.70 1009.34 1008.51 1008.88 1007.59 1006.54 1006.60 1006.52 1007.06 1007.68 1007.99 1007.79 1007.13 1003.54 999.47 997.02 993.58 991.23 989.64 989.17 989.13 989.70 989.32 989.12 989.15 988.86 988.97 989.43 989.83 990.37 990.66 991.36 992.17 993.08
1016.66 1015.30 1016.18 1014.98 1015.10 1015.37 1014.83 1013.34 1012.47 1011.78 1011.87 1010.85 1009.22 1008.35 1008.17 1007.45 1006.31 1005.41 1006.08 1005.73 1006.82 1007.44 1007.44 1006.38 1002.97 999.89 999.44 996.58 992.61 990.26 988.84 988.30 988.67 989.07 988.41 988.81 988.75 988.99 989.23 990.08 991.00 991.28 991.78 992.40 993.05
1018.29 1017.82 1016.89 1016.20 1015.49 1015.28 1013.92 1013.17 1012.41 1011.98 1011.92 1010.71 1009.91 1009.04 1008.20 1007.33 1006.56 1005.94 1005.20 1005.35 1006.01 1005.95 1006.16 1005.41 1003.03 1000.62 1000.01 998.53 994.16 989.80 989.21 988.79 988.89 989.43 988.91 988.78 989.16 989.38 989.49 990.20 991.10 991.65 992.02 992.53 993.15
1018.60 1018.60 1018.58 1016.45 1015.19 1014.85 1013.94 1013.60 1013.11 1012.24 1011.32 1010.90 1010.10 1009.36 1008.14 1007.16 1006.83 1006.30 1005.49 1005.18 1004.94 1004.82 1004.76 1004.59 1004.09 1001.89 1000.98 999.16 995.05 990.83 988.85 988.53 989.05 989.52 989.59 989.47 990.02 990.06 990.34 991.20 992.39 992.86 992.68 992.63 993.03
Thickness
5621 5623 5625 5627 5631 5635 5639 5641 5645 5652 5657 5664 5668 5672 5677 5681 5693 5707 5716 5740 5740 5738 5738 5747 5748 5752 5753 5752 5762 5769 5742 5747 5771 5783 5794 5818 5811 5827 5820 5802 5811 5816 5809 5815 5822
5614 5616 5619 5621 5624 5626 5628 5633 5638 5644 5647 5651 5654 5659 5665 5673 5690 5706 5733 5737 5735 5731 5733 5738 5737 5741 5737 5746 5751 5746 5742 5754 5789 5801 5797 5811 5812 5814 5806 5799 5797 5804 5816 5820 5821
5608 5610 5612 5613 5615 5618 5620 5623 5627 5630 5633 5638 5642 5648 5655 5664 5688 5721 5726 5729 5726 5724 5731 5737 5741 5737 5732 5750 5750 5751 5745 5770 5785 5800 5804 5800 5800 5811 5793 5782 5796 5794 5801 5807 5806
5600 5602 5604 5607 5610 5613 5615 5617 5618 5620 5626 5630 5632 5639 5644 5657 5679 5710 5708 5714 5718 5719 5717 5722 5729 5727 5729 5732 5753 5741 5760 5766 5777 5787 5785 5785 5799 5793 5791 5788 5802 5807 5803 5800 5797
5592 5593 5595 5597 5600 5603 5605 5608 5611 5614 5616 5617 5619 5625 5638 5661 5684 5703 5701 5707 5714 5719 5713 5714 5719 5729 5728 5738 5745 5748 5759 5766 5775 5778 5781 5788 5778 5781 5783 5794 5801 5803 5798 5794 5796
5583 5584 5586 5588 5591 5593 5596 5598 5601 5604 5606 5608 5610 5611 5624 5646 5686 5690 5692 5694 5700 5708 5711 5711 5722 5735 5735 5738 5738 5754 5755 5757 5765 5765 5772 5766 5777 5778 5782 5794 5795 5794 5791 5793 5796
5573 5574 5575 5577 5579 5582 5585 5588 5591 5594 5596 5598 5599 5603 5621 5650 5668 5671 5677 5680 5690 5698 5699 5717 5722 5721 5735 5729 5750 5750 5737 5749 5755 5762 5760 5761 5755 5762 5784 5790 5787 5788 5791 5792 5797
5564 5564 5565 5567 5568 5571 5573 5577 5582 5586 5588 5590 5590 5595 5619 5649 5655 5660 5666 5672 5678 5685 5688 5702 5714 5714 5716 5730 5728 5724 5729 5719 5755 5761 5759 5752 5740 5769 5785 5782 5782 5788 5790 5792 5793
5554 5553 5553 5554 5556 5559 5562 5569 5574 5577 5578 5578 5583 5590 5617 5643 5639 5648 5651 5654 5664 5675 5682 5684 5691 5699 5703 5695 5697 5718 5712 5730 5737 5760 5757 5754 5747 5770 5782 5775 5771 5779 5782 5782 5786
5543 5542 5541 5542 5542 5545 5548 5558 5565 5561 5567 5572 5579 5586 5608 5619 5635 5634 5640 5643 5648 5657 5665 5666 5666 5671 5683 5693 5698 5716 5718 5718 5726 5754 5760 5755 5756 5772 5771 5767 5764 5775 5781 5784 5783
5533 5530 5527 5525 5526 5528 5534 5555 5559 5560 5567 5572 5582 5588 5604 5611 5621 5622 5626 5627 5634 5638 5648 5657 5643 5670 5717 5716 5728 5726 5719 5725 5743 5762 5746 5744 5755 5769 5765 5760 5763 5769 5775 5780 5781
5519 5515 5512 5509 5509 5509 5510 5525 5526 5520 5539 5550 5564 5575 5585 5583 5590 5603 5609 5608 5614 5622 5631 5636 5653 5727 5702 5709 5706 5708 5707 5720 5736 5756 5750 5744 5745 5760 5764 5760 5764 5764 5768 5767 5771
5504 5498 5493 5488 5489 5490 5499 5499 5495 5496 5508 5541 5553 5566 5569 5571 5578 5588 5593 5597 5601 5613 5624 5630 5705 5688 5688 5696 5697 5705 5706 5710 5721 5738 5741 5730 5726 5740 5751 5756 5759 5762 5763 5766 5773
5489 5480 5473 5467 5471 5481 5485 5480 5478 5478 5487 5538 5535 5546 5547 5552 5557 5577 5585 5588 5591 5599 5616 5630 5674 5685 5677 5690 5704 5698 5718 5716 5713 5708 5695 5730 5708 5733 5746 5754 5755 5762 5765 5771 5776
5473 5464 5458 5452 5458 5466 5464 5464 5465 5466 5491 5529 5527 5534 5537 5542 5551 5563 5572 5570 5573 5588 5590 5648 5648 5663 5663 5704 5699 5718 5716 5714 5710 5701 5700 5706 5702 5728 5751 5744 5753 5763 5769 5775 5780
5461 5455 5452 5463 5456 5455 5455 5451 5451 5456 5494 5523 5523 5517 5526 5537 5540 5554 5553 5561 5565 5565 5585 5628 5648 5656 5674 5693 5702 5712 5705 5706 5708 5702 5683 5705 5702 5724 5744 5748 5761 5770 5775 5780 5785
5456 5452 5450 5452 5455 5448 5444 5450 5442 5474 5498 5490 5493 5498 5498 5519 5530 5543 5543 5546 5550 5547 5559 5601 5616 5645 5670 5664 5692 5699 5690 5670 5665 5674 5687 5716 5706 5739 5758 5761 5764 5765 5772 5781 5783
5457 5456 5455 5452 5449 5445 5445 5449 5460 5491 5491 5496 5495 5500 5506 5517 5525 5536 5536 5533 5550 5557 5571 5578 5581 5620 5664 5674 5679 5688 5693 5689 5668 5686 5698 5722 5707 5740 5769 5772 5770 5775 5775 5773 5768
5464 5471 5461 5456 5446 5443 5439 5455 5472 5479 5480 5475 5480 5483 5502 5510 5521 5526 5531 5535 5525 5512 5517 5573 5591 5636 5644 5662 5673 5685 5683 5724 5710 5731 5718 5743 5751 5759 5770 5770 5769 5772 5774 5770 5764
5467 5476 5468 5454 5447 5447 5450 5460 5478 5478 5473 5472 5469 5474 5484 5500 5505 5518 5525 5497 5510 5511 5509 5554 5581 5622 5647 5650 5670 5690 5720 5679 5707 5692 5700 5726 5740 5736 5757 5769 5770 5771 5771 5771 5764
5470 5478 5468 5457 5452 5453 5446 5464 5470 5467 5467 5464 5463 5473 5481 5481 5490 5503 5507 5501 5493 5505 5514 5537 5532 5591 5630 5641 5655 5678 5690 5696 5710 5719 5708 5708 5728 5768 5761 5775 5772 5778 5779 5768 5762
5480 5485 5471 5463 5450 5452 5455 5462 5457 5467 5468 5469 5464 5459 5470 5474 5482 5495 5495 5494 5491 5499 5511 5543 5541 5562 5623 5659 5672 5686 5692 5696 5696 5698 5724 5735 5732 5758 5765 5768 5770 5778 5773 5768 5763
5483 5489 5478 5464 5447 5447 5459 5461 5464 5459 5467 5469 5464 5470 5477 5474 5476 5491 5497 5471 5470 5479 5492 5509 5544 5562 5595 5641 5665 5677 5693 5705 5706 5726 5708 5721 5723 5759 5763 5762 5767 5771 5769 5762 5760
5480 5485 5483 5468 5454 5443 5447 5455 5456 5462 5463 5466 5465 5473 5462 5473 5487 5479 5483 5481 5474 5471 5474 5480 5528 5563 5587 5635 5667 5673 5693 5708 5704 5700 5713 5720 5733 5746 5748 5751 5754 5759 5761 5759 5755
5482 5480 5462 5465 5455 5441 5441 5451 5448 5450 5442 5451 5466 5472 5468 5470 5484 5493 5485 5494 5484 5476 5472 5488 5535 5569 5561 5588 5645 5677 5693 5706 5701 5711 5719 5726 5734 5741 5752 5746 5747 5755 5756 5754 5752
5465 5457 5459 5457 5455 5445 5457 5455 5455 5452 5442 5452 5454 5461 5468 5469 5476 5479 5489 5491 5484 5491 5485 5501 5532 5557 5549 5568 5612 5676 5689 5699 5704 5706 5725 5733 5728 5751 5755 5755 5748 5749 5752 5749 5748
5464 5453 5438 5457 5460 5452 5455 5451 5445 5450 5454 5450 5452 5453 5462 5470 5471 5474 5484 5492 5498 5500 5502 5505 5509 5544 5537 5563 5605 5648 5680 5694 5701 5710 5716 5711 5724 5745 5741 5732 5722 5733 5743 5747 5749